Location: Bothell
(47.7630°N, 122.2040°W)
Time: 20:08:51
(UTC-08:00)

Amateur Radio Satellites - All Passes

Search period start: 27 November 2014 19:38
Search period end: 28 November 2014 19:38
Location: Bothell, 47.7630°N, 122.2040°W

Satellite Date Start Highest point End Downlink Frequencies (MHz)
Time Altitude Azimuth
DX 1 27 Nov 19:44:47 19:47:46 18° 60° (ENE) 19:50:45 434.975-435.025
UWE-3 27 Nov 19:47:22 19:47:44 10° 57° (ENE) 19:48:07 435.000/436.395/437.385
PRISM 27 Nov 19:47:49 19:50:44 18° 299° (WNW) 19:53:39 437.425
CUBEBUG 2 27 Nov 19:49:49 19:51:36 13° 59° (ENE) 19:53:22 437.445
AIST 2 27 Nov 19:51:46 19:55:21 27° 116° (ESE) 19:59:00 435.215
BRITE-PL 27 Nov 19:56:41 20:01:29 61° 73° (ENE) 20:05:56 437.365/2234.400
DOVE 4 27 Nov 20:05:09 20:09:21 41° 70° (ENE) 20:13:23 437.250
CUTE 1.7 + AOD 2 27 Nov 20:07:38 20:11:50 77° 74° (ENE) 20:16:06 437.475
ZACube-1 27 Nov 20:15:24 20:18:03 17° 61° (ENE) 20:20:42 437.345
VELOX 1 27 Nov 20:23:51 20:26:31 16° 59° (ENE) 20:29:10 145.980
CINEMA 3 27 Nov 20:26:16 20:30:19 41° 70° (ENE) 20:34:16 145.822/145.860
PCSat 27 Nov 20:28:31 20:33:46 50° 311° (NW) 20:39:04 145.827
BEESAT 3 27 Nov 20:28:47 20:32:54 69° 310° (NW) 20:37:05 437.485
SEEDS 27 Nov 20:38:12 20:42:20 58° 260° (W) 20:46:31 437.485
UKube-1 27 Nov 20:41:37 20:45:54 58° 71° (ENE) 20:50:12 .
DELFI C3 27 Nov 20:45:49 20:49:49 58° 73° (ENE) 20:53:51 145.870
BEESAT 2 27 Nov 20:46:01 20:50:06 54° 312° (NW) 20:54:14 435.950
STRAND 1 27 Nov 20:46:16 20:49:53 20° 302° (WNW) 20:53:29 437.568
FUNcube-1 27 Nov 20:48:33 20:52:17 33° 68° (ENE) 20:56:02 145.935
AISAT 27 Nov 20:50:05 20:53:49 27° 64° (ENE) 20:57:34 437.250
AAUSAT CUBESAT 2 27 Nov 20:50:55 20:55:01 56° 260° (W) 20:59:09 437.432
Oscar 11 27 Nov 20:51:21 20:55:39 79° 75° (ENE) 20:59:59 145.826/435.025
50 SAT 27 Nov 20:53:39 20:56:38 20° 64° (ENE) 20:59:37 437.505
GOMX 1 27 Nov 20:56:17 21:00:49 49° 260° (W) 21:05:05 467.674
CUBEBUG 1 27 Nov 20:57:18 20:59:21 13° 57° (ENE) 21:01:23 437.445
GONETS M04 27 Nov 20:59:39 21:06:42 28° 280° (W) 21:13:42
AIST 1 27 Nov 21:04:51 21:07:29 15° 295° (WNW) 21:10:08
HO-68 27 Nov 21:06:30 21:13:06 39° 263° (W) 21:19:45 435.675
CUBESAT XI-V 27 Nov 21:07:43 21:08:18 10° 306° (NW) 21:08:54 437.345
COMPASS 1 27 Nov 21:08:06 21:11:54 33° 264° (W) 21:15:44 437.405
CANX-2 27 Nov 21:10:12 21:13:35 23° 267° (W) 21:17:00 2200.000
HUMSAT D 27 Nov 21:17:43 21:21:36 41° 70° (ENE) 21:25:29 437.325/437.525
DX 1 27 Nov 21:19:17 21:23:36 58° 258° (WSW) 21:27:57 434.975-435.025
UWE-3 27 Nov 21:19:23 21:23:36 81° 75° (ENE) 21:27:46 435.000/436.395/437.385
CUBEBUG 2 27 Nov 21:23:31 21:27:45 81° 257° (WSW) 21:31:56 437.445
AIST 2 27 Nov 21:29:46 21:33:50 43° 315° (NW) 21:37:58 435.215
RS-15 27 Nov 21:30:12 21:40:02 35° 14° (NNE) 21:50:09 29.354- 29.394
BRITE-PL 27 Nov 21:37:12 21:40:20 17° 269° (W) 21:43:21 437.365/2234.400
DOVE 4 27 Nov 21:43:46 21:47:18 23° 266° (W) 21:50:44 437.250
ANTELSAT 27 Nov 21:46:32 21:49:16 16° 90° (E) 21:52:01 437.575/2403.000
CUTE 1.7 + AOD 2 27 Nov 21:46:53 21:48:20 12° 273° (W) 21:49:48 437.475
ZACube-1 27 Nov 21:49:56 21:54:03 57° 259° (W) 21:58:10 437.345
TISAT 1 27 Nov 21:56:20 21:58:26 14° 59° (ENE) 22:00:32 437.305
VELOX 1 27 Nov 21:58:07 22:02:35 72° 257° (WSW) 22:07:04 145.980
ISS 27 Nov 22:02:01 22:03:14 12° 134° (SE) 22:04:27 145.825
ESTCUBE 1 27 Nov 22:04:12 22:08:39 54° 71° (ENE) 22:13:07 437.505/2401.250
CINEMA 3 27 Nov 22:04:24 22:07:43 21° 267° (W) 22:10:58 145.822/145.860
NANOSAT C BR1 27 Nov 22:06:19 22:08:57 16° 90° (E) 22:11:34 145.865
BEESAT 3 27 Nov 22:09:19 22:11:54 16° 331° (NNW) 22:14:30 437.485
SPROUT 27 Nov 22:11:58 22:14:44 17° 61° (ENE) 22:17:30 437.525
PCSat 27 Nov 22:15:20 22:18:31 15° 334° (NNW) 22:21:42 145.827
QB50P1 27 Nov 22:16:07 22:19:16 20° 92° (E) 22:22:24 145.935-145.965
BUGSAT 1 27 Nov 22:16:10 22:18:43 16° 91° (E) 22:21:15 437.445
UKube-1 27 Nov 22:19:43 22:22:27 16° 269° (W) 22:25:11 .
DELFI C3 27 Nov 22:23:14 22:25:30 15° 270° (W) 22:27:48 145.870
FUNcube-1 27 Nov 22:25:14 22:28:43 25° 266° (W) 22:32:12 145.935
AISAT 27 Nov 22:26:09 22:30:19 38° 262° (W) 22:34:30 437.250
BEESAT 2 27 Nov 22:27:07 22:29:19 14° 334° (NNW) 22:31:33 435.950
50 SAT 27 Nov 22:27:53 22:31:42 41° 262° (W) 22:35:33 437.505
CUBEBUG 1 27 Nov 22:30:38 22:35:05 88° 257° (WSW) 22:39:33 437.445
Oscar 11 27 Nov 22:30:49 22:32:24 12° 273° (W) 22:33:58 145.826/435.025
TIGRISAT 27 Nov 22:38:10 22:42:28 48° 99° (E) 22:46:50 435.000
POPSAT HIP 1 27 Nov 22:40:43 22:44:36 35° 97° (E) 22:48:28 437.405
CUSAT 1 27 Nov 22:47:38 22:51:56 38° 75° (ENE) 22:57:33 437.405
UNISAT 6 27 Nov 22:52:58 22:57:25 69° 102° (ESE) 23:01:57 437.425
HUMSAT D 27 Nov 22:54:33 22:57:37 20° 268° (W) 23:00:42 437.325/437.525
UWE-3 27 Nov 22:59:47 23:00:43 11° 273° (W) 23:01:40 435.000/436.395/437.385
AIST 2 27 Nov 23:11:40 23:13:35 13° 337° (NNW) 23:15:30 435.215
POLYITAN 1 27 Nov 23:15:24 23:19:40 82° 104° (ESE) 23:23:54 437.675
QB50P2 27 Nov 23:16:33 23:20:49 84° 104° (ESE) 23:25:03 145.880/145.840
AUBIESAT-1 27 Nov 23:17:14 23:20:52 27° 57° (ENE) 23:24:44 437.475
MaSat-1 27 Nov 23:17:19 23:19:23 27° 55° (NE) 23:21:29 437.345
DUCHIFAT 1 27 Nov 23:21:10 23:25:24 89° 285° (WNW) 23:29:37 145.980
ANTELSAT 27 Nov 23:22:04 23:26:29 63° 287° (WNW) 23:30:58 437.575/2403.000
DANDE 27 Nov 23:22:52 23:27:15 64° 78° (ENE) 23:33:14 436.750
M-CUBED/EXP-1 PRIME 27 Nov 23:23:45 23:27:35 33° 60° (ENE) 23:31:42 437.505
TISAT 1 27 Nov 23:29:27 23:33:43 78° 257° (WSW) 23:38:00 437.305
ISS 27 Nov 23:36:04 23:39:19 63° 151° (SSE) 23:42:35 145.825
ITUPSAT 1 27 Nov 23:40:15 23:44:14 26° 63° (ENE) 23:48:13 437.325
NANOSAT C BR1 27 Nov 23:41:03 23:45:12 55° 288° (WNW) 23:49:19 145.865
ESTCUBE 1 27 Nov 23:42:39 23:45:51 19° 269° (W) 23:49:05 437.505/2401.250
RS-15 27 Nov 23:43:45 23:54:52 67° 45° (NE) 00:06:26 29.354- 29.394
SPROUT 27 Nov 23:46:08 23:50:24 61° 259° (W) 23:54:41 437.525
SWISSCUBE 27 Nov 23:49:54 23:54:13 34° 66° (ENE) 23:58:33 437.505
BUGSAT 1 27 Nov 23:50:35 23:54:34 51° 289° (WNW) 23:58:29 437.445
QB50P1 27 Nov 23:51:22 23:55:24 43° 290° (WNW) 23:59:24 145.935-145.965
CUBEBUG 1 28 Nov 00:11:34 00:12:08 10° 274° (W) 00:12:43 437.445
KKS-1 28 Nov 00:14:04 00:16:06 13° 57° (ENE) 00:18:08 437.445
TIGRISAT 28 Nov 00:15:36 00:18:58 22° 297° (WNW) 00:22:22 435.000
POPSAT HIP 1 28 Nov 00:16:54 00:20:23 26° 295° (WNW) 00:23:52 437.405
BEESAT 28 Nov 00:20:01 00:24:43 58° 71° (ENE) 00:29:27 436.000
YUBILEINY 28 Nov 00:25:06 00:29:35 15° 71° (ENE) 00:34:03 435.215
CUSAT 1 28 Nov 00:30:51 00:35:02 31° 265° (W) 00:40:22 437.405
UNISAT 6 28 Nov 00:31:01 00:33:45 16° 300° (WNW) 00:36:31 437.425
AUBIESAT-1 28 Nov 00:51:42 00:55:40 40° 258° (WSW) 00:59:59 437.475
POLYITAN 1 28 Nov 00:53:08 00:55:01 13° 302° (WNW) 00:56:55 437.675
Oscar 19 28 Nov 00:53:48 00:58:02 25° 93° (E) 01:02:16 437.125/150
QB50P2 28 Nov 00:54:19 00:56:07 13° 302° (WNW) 00:57:56 145.880/145.840
M-CUBED/EXP-1 PRIME 28 Nov 00:58:50 01:02:36 32° 260° (W) 01:06:42 437.505
DUCHIFAT 1 28 Nov 00:59:12 01:00:37 12° 303° (WNW) 01:02:02 145.980
STARS 28 Nov 01:03:17 01:06:52 25° 64° (ENE) 01:10:27 437.465
DANDE 28 Nov 01:07:29 01:10:39 18° 268° (W) 01:14:24 436.750
ISS 28 Nov 01:12:54 01:16:05 45° 351° (N) 01:19:16 145.825
ITUPSAT 1 28 Nov 01:17:19 01:21:55 44° 261° (W) 01:26:33 437.325
SWISSCUBE 28 Nov 01:27:45 01:32:04 33° 264° (W) 01:36:26 437.505
BEESAT 3 28 Nov 01:31:16 01:32:12 11° 20° (NNE) 01:33:08 437.485
PCSat 28 Nov 01:46:57 01:50:21 16° 27° (NNE) 01:53:45 145.827
KKS-1 28 Nov 01:47:38 01:52:06 88° 257° (WSW) 01:56:35 437.445
BEESAT 2 28 Nov 01:48:06 01:49:47 12° 23° (NNE) 01:51:28 435.950
ITAMSAT 1 28 Nov 01:51:39 01:56:18 32° 96° (E) 02:00:54 435.822/435.867
RS-15 28 Nov 01:56:32 02:06:52 45° 249° (WSW) 02:17:38 29.354- 29.394
BEESAT 28 Nov 01:59:32 02:02:56 19° 269° (W) 02:06:22 436.000
SO-50 28 Nov 02:10:00 02:12:14 14° 109° (ESE) 02:14:31 436.795
YUBILEINY 28 Nov 02:15:58 02:24:40 69° 93° (E) 02:33:21 435.215
AIST 2 28 Nov 02:32:22 02:34:47 14° 26° (NNE) 02:37:11 435.215
Oscar 19 28 Nov 02:32:39 02:37:38 49° 291° (WNW) 02:42:36 437.125/150
Gurwin Techsat 1B 28 Nov 02:36:51 02:42:00 48° 99° (E) 02:47:07 435.225
STARS 28 Nov 02:39:03 02:43:11 39° 262° (W) 02:47:20 437.465
ISS 28 Nov 02:49:54 02:53:06 46° 11° (N) 02:56:18 145.825
HORYU 2 28 Nov 02:54:11 02:58:11 31° 96° (E) 03:02:10 437.375
BEESAT 3 28 Nov 03:07:50 03:11:41 33° 42° (NE) 03:15:29 437.485
AO-7 28 Nov 03:08:38 03:14:54 23° 90° (E) 03:21:07 29.400- 29.500
MOZHAYETS 4 28 Nov 03:09:34 03:13:11 23° 63° (ENE) 03:16:51
BEESAT 2 28 Nov 03:25:10 03:29:11 41° 45° (NE) 03:33:10 435.950
KKS-1 28 Nov 03:28:47 03:29:25 10° 273° (W) 03:30:04 437.445
PCSat 28 Nov 03:29:39 03:35:00 55° 50° (NE) 03:40:19 145.827
ITAMSAT 1 28 Nov 03:31:04 03:35:51 39° 294° (WNW) 03:40:37 435.822/435.867
SO-50 28 Nov 03:47:30 03:52:04 88° 308° (NW) 03:56:48 436.795
AIST 2 28 Nov 04:10:05 04:14:21 55° 48° (NE) 04:18:33 435.215
YUBILEINY 28 Nov 04:14:35 04:22:13 32° 296° (WNW) 04:29:51 435.215
Gurwin Techsat 1B 28 Nov 04:17:17 04:21:44 28° 298° (WNW) 04:26:10 435.225
ISS 28 Nov 04:26:35 04:29:50 56° 210° (SSW) 04:33:04 145.825
HORYU 2 28 Nov 04:30:51 04:34:51 32° 294° (WNW) 04:38:51 437.375
MOZHAYETS 4 28 Nov 04:45:44 04:50:09 46° 262° (W) 04:54:38
BEESAT 3 28 Nov 04:46:05 04:49:57 36° 241° (WSW) 04:53:45 437.485
STRAND 1 28 Nov 04:47:54 04:51:48 22° 60° (ENE) 04:55:43 437.568
O/OREOS (USA 219) 28 Nov 04:52:51 04:56:27 24° 103° (ESE) 05:00:03 437.305
CUBESAT XI-V 28 Nov 04:57:37 05:01:22 24° 63° (ENE) 05:05:07 437.345
AO-7 28 Nov 05:00:19 05:08:44 89° 290° (WNW) 05:17:08 29.400- 29.500
BEESAT 2 28 Nov 05:03:45 05:07:21 28° 244° (WSW) 05:10:54 435.950
JAS-2 28 Nov 05:04:36 05:11:29 50° 97° (E) 05:17:33 435.910
PRISM 28 Nov 05:05:24 05:09:34 64° 72° (ENE) 05:13:47 437.425
PCSat 28 Nov 05:13:35 05:18:07 28° 250° (WSW) 05:22:38 145.827
AIST 1 28 Nov 05:29:22 05:32:55 24° 69° (ENE) 05:36:26
SO-50 28 Nov 05:29:46 05:33:18 21° 330° (NNW) 05:36:55 436.795
CUTE-I 28 Nov 05:30:14 05:34:11 21° 91° (E) 05:38:06 437.470
AIST 2 28 Nov 05:49:25 05:52:39 21° 247° (WSW) 05:55:51 435.215
ISS 28 Nov 06:05:26 06:05:52 10° 227° (SW) 06:06:18 145.825
GONETS M04 28 Nov 06:14:47 06:19:58 17° 73° (ENE) 06:25:09
STRAND 1 28 Nov 06:25:30 06:30:36 60° 259° (WSW) 06:35:42 437.568
Cubesat XI-IV 28 Nov 06:28:39 06:33:58 64° 102° (ESE) 06:39:14 437.490
O/OREOS (USA 219) 28 Nov 06:31:22 06:35:37 42° 302° (WNW) 06:39:54 437.305
CUBESAT XI-V 28 Nov 06:33:59 06:38:32 47° 261° (W) 06:43:08 437.345
PRISM 28 Nov 06:43:17 06:45:34 14° 270° (W) 06:47:51 437.425
JAS-2 28 Nov 06:49:53 06:56:19 37° 299° (WNW) 07:02:05 435.910
AO-7 28 Nov 06:54:01 07:00:33 27° 312° (NW) 07:07:06 29.400- 29.500
AIST 1 28 Nov 07:06:40 07:10:44 37° 268° (W) 07:14:43
CUTE-I 28 Nov 07:09:26 07:14:42 62° 289° (WNW) 07:19:55 437.470
SO-50 28 Nov 07:14:36 07:15:41 11° 354° (N) 07:16:46 436.795
CUTE 1.7 + AOD 2 28 Nov 07:52:15 07:53:25 11° 87° (E) 07:54:34 437.475
BRITE-PL 28 Nov 07:59:47 08:01:27 12° 88° (E) 08:03:09 437.365/2234.400
GONETS M04 28 Nov 08:06:26 08:15:12 76° 95° (E) 08:24:03
Cubesat XI-IV 28 Nov 08:09:35 08:13:37 22° 301° (WNW) 08:17:37 437.490
SEEDS 28 Nov 08:20:24 08:23:28 19° 91° (E) 08:26:31 437.485
UNISAT 6 28 Nov 08:22:15 08:23:51 12° 57° (ENE) 08:25:27 437.425
HO-68 28 Nov 08:29:46 08:36:19 37° 96° (E) 08:42:49 435.675
AAUSAT CUBESAT 2 28 Nov 08:32:00 08:35:02 19° 91° (E) 08:38:03 437.432
Oscar 11 28 Nov 08:37:39 08:39:08 12° 87° (E) 08:40:36 145.826/435.025
POLYITAN 1 28 Nov 08:39:11 08:40:59 13° 58° (ENE) 08:42:47 437.675
QB50P2 28 Nov 08:40:02 08:41:55 13° 58° (ENE) 08:43:49 145.880/145.840
DUCHIFAT 1 28 Nov 08:44:03 08:46:11 14° 59° (ENE) 08:48:18 145.980
COMPASS 1 28 Nov 08:48:36 08:52:23 30° 96° (E) 08:56:09 437.405
ANTELSAT 28 Nov 08:49:26 08:52:38 21° 63° (ENE) 08:55:52 437.575/2403.000
CANX-2 28 Nov 08:51:23 08:55:33 47° 99° (E) 08:59:43 2200.000
CUTE-I 28 Nov 08:52:02 08:53:44 12° 309° (NW) 08:55:26 437.470
GOMX 1 28 Nov 08:54:34 08:58:21 32° 97° (E) 09:02:11 467.674
SO-50 28 Nov 08:55:50 08:58:21 14° 19° (NNE) 09:00:53 436.795
NANOSAT C BR1 28 Nov 09:02:44 09:05:51 20° 63° (ENE) 09:08:59 145.865
DX 1 28 Nov 09:05:16 09:08:22 19° 92° (E) 09:11:26 434.975-435.025
UWE-3 28 Nov 09:07:46 09:09:37 13° 89° (E) 09:11:29 435.000/436.395/437.385
BUGSAT 1 28 Nov 09:09:51 09:12:57 20° 63° (ENE) 09:16:02 437.445
CUBEBUG 2 28 Nov 09:12:20 09:15:01 16° 91° (E) 09:17:44 437.445
QB50P1 28 Nov 09:12:36 09:16:04 25° 65° (ENE) 09:19:32 145.935-145.965
CUTE 1.7 + AOD 2 28 Nov 09:25:38 09:29:57 84° 285° (WNW) 09:34:15 437.475
ZACube-1 28 Nov 09:35:51 09:39:05 21° 93° (E) 09:42:21 437.345
BRITE-PL 28 Nov 09:36:23 09:40:30 68° 286° (WNW) 09:44:41 437.365/2234.400
POPSAT HIP 1 28 Nov 09:37:07 09:41:07 42° 70° (ENE) 09:45:08 437.405
DOVE 4 28 Nov 09:38:04 09:42:14 70° 102° (ESE) 09:46:32 437.250
TIGRISAT 28 Nov 09:40:37 09:44:49 63° 73° (ENE) 09:49:03 435.000
VELOX 1 28 Nov 09:46:47 09:49:43 17° 91° (E) 09:52:38 145.980
CINEMA 3 28 Nov 09:54:25 09:58:38 65° 102° (ESE) 10:02:58 145.822/145.860
SEEDS 28 Nov 09:55:26 09:59:34 47° 289° (WNW) 10:03:40 437.485
UNISAT 6 28 Nov 09:55:44 10:00:00 89° 255° (WSW) 10:04:19 437.425
DELFI C3 28 Nov 09:58:32 10:02:40 65° 101° (ESE) 10:06:47 145.870
UKube-1 28 Nov 10:02:15 10:06:35 67° 103° (ESE) 10:10:53 .
GONETS M04 28 Nov 10:05:33 10:12:58 29° 298° (WNW) 10:20:28
50 SAT 28 Nov 10:05:51 10:08:59 21° 93° (E) 10:12:07 437.505
AAUSAT CUBESAT 2 28 Nov 10:06:53 10:10:58 47° 289° (WNW) 10:15:02 437.432
FUNcube-1 28 Nov 10:09:34 10:13:38 44° 99° (E) 10:17:47 145.935
Oscar 11 28 Nov 10:11:31 10:15:53 82° 285° (WNW) 10:20:15 145.826/435.025
POLYITAN 1 28 Nov 10:12:04 10:16:20 85° 257° (WSW) 10:20:36 437.675
QB50P2 28 Nov 10:12:59 10:17:15 83° 256° (WSW) 10:21:31 145.880/145.840
AISAT 28 Nov 10:13:58 10:17:57 32° 96° (E) 10:21:53 437.250
DUCHIFAT 1 28 Nov 10:17:15 10:21:30 77° 257° (WSW) 10:25:46 145.980
HO-68 28 Nov 10:17:20 10:24:15 52° 296° (WNW) 10:31:07 435.675
CUBEBUG 1 28 Nov 10:18:08 10:20:23 14° 89° (E) 10:22:36 437.445
COMPASS 1 28 Nov 10:24:23 10:28:05 29° 293° (WNW) 10:31:46 437.405
ANTELSAT 28 Nov 10:25:06 10:29:11 45° 261° (W) 10:33:19 437.575/2403.000
CANX-2 28 Nov 10:28:02 10:31:13 21° 297° (WNW) 10:34:23 2200.000
GOMX 1 28 Nov 10:32:57 10:36:26 26° 294° (WNW) 10:39:57 467.674
HUMSAT D 28 Nov 10:34:30 10:38:35 50° 100° (E) 10:42:41 437.325/437.525
SO-50 28 Nov 10:35:39 10:40:13 39° 42° (NE) 10:44:49 436.795
NANOSAT C BR1 28 Nov 10:37:21 10:41:27 47° 261° (W) 10:45:34 145.865
DX 1 28 Nov 10:40:41 10:44:54 50° 290° (WNW) 10:49:05 434.975-435.025
UWE-3 28 Nov 10:42:25 10:46:40 73° 286° (WNW) 10:50:59 435.000/436.395/437.385
BUGSAT 1 28 Nov 10:44:04 10:48:10 47° 260° (W) 10:52:16 437.445
QB50P1 28 Nov 10:47:52 10:51:49 37° 263° (W) 10:55:46 145.935-145.965
CUBEBUG 2 28 Nov 10:47:55 10:52:04 56° 288° (WNW) 10:56:20 437.445
CUTE 1.7 + AOD 2 28 Nov 11:03:54 11:05:11 11° 303° (WNW) 11:06:27 437.475
ZACube-1 28 Nov 11:11:39 11:15:40 43° 290° (WNW) 11:19:44 437.345
TISAT 1 28 Nov 11:12:57 11:15:01 13° 89° (E) 11:17:04 437.305
POPSAT HIP 1 28 Nov 11:13:58 11:17:13 21° 267° (W) 11:20:29 437.405
DOVE 4 28 Nov 11:17:23 11:19:34 14° 300° (WNW) 11:21:47 437.250
TIGRISAT 28 Nov 11:19:46 11:22:02 14° 271° (W) 11:24:19 435.000
VELOX 1 28 Nov 11:22:20 11:26:41 56° 289° (WNW) 11:30:59 145.980
ESTCUBE 1 28 Nov 11:30:28 11:35:03 75° 103° (ESE) 11:39:33 437.505/2401.250
SPROUT 28 Nov 11:30:32 11:33:34 19° 91° (E) 11:36:34 437.525
CINEMA 3 28 Nov 11:32:57 11:35:26 16° 299° (WNW) 11:37:58 145.822/145.860
DELFI C3 28 Nov 11:35:08 11:37:30 15° 300° (WNW) 11:39:52 145.870
ITAMSAT 1 28 Nov 11:37:24 11:39:27 12° 52° (NE) 11:41:31 435.822/435.867
UKube-1 28 Nov 11:39:38 11:42:16 16° 301° (WNW) 11:44:53 .
50 SAT 28 Nov 11:40:39 11:44:27 39° 290° (WNW) 11:48:15 437.505
FUNcube-1 28 Nov 11:46:33 11:49:46 21° 296° (WNW) 11:53:00 145.935
Oscar 11 28 Nov 11:50:03 11:51:20 11° 304° (WNW) 11:52:37 145.826/435.025
AISAT 28 Nov 11:50:41 11:54:33 30° 294° (WNW) 11:58:24 437.250
CUBEBUG 1 28 Nov 11:52:54 11:57:15 68° 287° (WNW) 12:01:33 437.445
CUSAT 1 28 Nov 12:06:32 12:08:21 17° 92° (E) 12:10:13 437.405
HO-68 28 Nov 12:07:06 12:10:24 14° 318° (NW) 12:13:42 435.675
HUMSAT D 28 Nov 12:11:10 12:14:05 19° 297° (WNW) 12:17:00 437.325/437.525
Oscar 19 28 Nov 12:13:50 12:18:45 50° 69° (ENE) 12:23:43 437.125/150
SO-50 28 Nov 12:16:17 12:20:49 39° 241° (WSW) 12:25:21 436.795
BEESAT 28 Nov 12:19:21 12:20:57 12° 86° (E) 12:22:32 436.000
YUBILEINY 28 Nov 12:22:02 12:30:10 41° 68° (ENE) 12:38:14 435.215
Gurwin Techsat 1B 28 Nov 12:23:51 12:27:22 18° 57° (ENE) 12:30:53 435.225
AO-7 28 Nov 12:24:18 12:28:01 14° 34° (NNE) 12:31:44 29.400- 29.500
AUBIESAT-1 28 Nov 12:32:12 12:34:56 15° 93° (E) 12:37:37 437.475
M-CUBED/EXP-1 PRIME 28 Nov 12:38:53 12:42:20 19° 95° (E) 12:45:42 437.505
DANDE 28 Nov 12:43:58 12:46:31 49° 98° (E) 12:49:06 436.750
TISAT 1 28 Nov 12:47:08 12:51:20 67° 287° (WNW) 12:55:29 437.305
SPROUT 28 Nov 13:05:48 13:09:56 48° 289° (WNW) 13:14:03 437.525
ESTCUBE 1 28 Nov 13:08:42 13:11:22 16° 301° (WNW) 13:14:01 437.505/2401.250
VERMONT LUNAR 28 Nov 13:09:37 13:10:29 11° 154° (SSE) 13:11:21 437.305
ITAMSAT 1 28 Nov 13:12:51 13:18:01 69° 72° (ENE) 13:23:13 435.822/435.867
ITUPSAT 1 28 Nov 13:14:35 13:19:04 37° 97° (E) 13:23:30 437.325
O/OREOS (USA 219) 28 Nov 13:20:19 13:22:45 14° 44° (NE) 13:25:11 437.305
SWISSCUBE 28 Nov 13:24:18 13:28:59 50° 100° (E) 13:33:37 437.505
KKS-1 28 Nov 13:37:05 13:39:30 14° 89° (E) 13:41:54 437.445
JAS-2 28 Nov 13:41:16 13:42:39 11° 40° (NE) 13:44:02 435.910
CUSAT 1 28 Nov 13:50:10 13:51:30 13° 294° (WNW) 13:52:52 437.405
Oscar 19 28 Nov 13:54:15 13:58:22 24° 267° (W) 14:02:31 437.125/150
BEESAT 28 Nov 13:54:41 13:59:31 88° 105° (ESE) 14:04:19 436.000
HORYU 2 28 Nov 13:56:03 14:00:14 43° 69° (ENE) 14:04:27 437.375
Gurwin Techsat 1B 28 Nov 14:01:23 14:06:42 80° 256° (WSW) 14:12:04 435.225
AUBIESAT-1 28 Nov 14:05:32 14:10:30 83° 291° (WNW) 14:15:18 437.475
AO-7 28 Nov 14:11:01 14:18:42 44° 58° (ENE) 14:26:25 29.400- 29.500
M-CUBED/EXP-1 PRIME 28 Nov 14:12:51 14:17:47 67° 293° (WNW) 14:22:35 437.505
RS-15 28 Nov 14:14:53 14:22:57 25° 101° (ESE) 14:30:58 29.354- 29.394
YUBILEINY 28 Nov 14:18:53 14:27:13 52° 271° (W) 14:35:30 435.215
MaSat-1 28 Nov 14:21:59 14:24:34 32° 115° (ESE) 14:26:58 437.345
STARS 28 Nov 14:25:47 14:29:39 29° 96° (E) 14:33:29 437.465
VERMONT LUNAR 28 Nov 14:45:16 14:48:11 23° 170° (S) 14:51:06 437.305
PHONESAT 2.4 28 Nov 14:46:08 14:49:00 21° 166° (SSE) 14:51:53 2401.200-2431.200
ITUPSAT 1 28 Nov 14:52:41 14:56:52 30° 296° (WNW) 15:01:02 437.325
ITAMSAT 1 28 Nov 14:54:28 14:58:01 18° 270° (W) 15:01:35 435.822/435.867
O/OREOS (USA 219) 28 Nov 14:58:24 15:02:54 84° 64° (ENE) 15:07:23 437.305
SWISSCUBE 28 Nov 15:02:46 15:06:33 24° 298° (WNW) 15:10:19 437.505
KKS-1 28 Nov 15:12:12 15:16:38 68° 287° (WNW) 15:21:02 437.445
JAS-2 28 Nov 15:18:37 15:25:37 38° 61° (ENE) 15:32:36 435.910
HORYU 2 28 Nov 15:33:38 15:37:07 22° 267° (W) 15:40:37 437.375
BEESAT 28 Nov 15:34:06 15:36:42 15° 304° (WNW) 15:39:17 436.000
AUBIESAT-1 28 Nov 15:41:55 15:44:44 16° 309° (NW) 15:47:32 437.475
Gurwin Techsat 1B 28 Nov 15:45:36 15:47:32 12° 275° (W) 15:49:28 435.225
M-CUBED/EXP-1 PRIME 28 Nov 15:49:44 15:51:56 13° 312° (NW) 15:54:07 437.505
MaSat-1 28 Nov 15:57:40 15:59:05 13° 310° (NW) 16:00:27 437.345
STARS 28 Nov 16:02:13 16:06:08 32° 294° (WNW) 16:10:03 437.465
AO-7 28 Nov 16:03:20 16:11:22 53° 258° (WSW) 16:19:30 29.400- 29.500
Cubesat XI-IV 28 Nov 16:15:44 16:19:58 24° 60° (ENE) 16:24:11 437.490
GONETS M04 28 Nov 16:18:42 16:21:17 11° 43° (NE) 16:23:50
RS-15 28 Nov 16:22:41 16:33:38 85° 125° (SE) 16:44:40 29.354- 29.394
VERMONT LUNAR 28 Nov 16:23:05 16:26:05 24° 187° (S) 16:29:04 437.305
PHONESAT 2.4 28 Nov 16:24:03 16:27:12 26° 184° (S) 16:30:21 2401.200-2431.200
MOZHAYETS 4 28 Nov 16:37:37 16:41:51 33° 96° (E) 16:46:03
O/OREOS (USA 219) 28 Nov 16:40:02 16:41:36 12° 263° (W) 16:43:09 437.305
CUTE-I 28 Nov 16:55:08 17:00:15 47° 68° (ENE) 17:05:22 437.470
JAS-2 28 Nov 17:02:39 17:10:17 60° 261° (W) 17:18:02 435.910
HO-68 28 Nov 17:21:11 17:22:39 11° 38° (NE) 17:24:06 435.675
Cubesat XI-IV 28 Nov 17:54:24 17:59:41 59° 259° (W) 18:05:00 437.490
VERMONT LUNAR 28 Nov 18:02:10 18:03:49 13° 204° (SSW) 18:05:29 437.305
PHONESAT 2.4 28 Nov 18:03:00 18:05:20 16° 200° (SSW) 18:07:40 2401.200-2431.200
AIST 1 28 Nov 18:04:58 18:06:36 12° 82° (E) 18:08:14
GONETS M04 28 Nov 18:12:37 18:21:04 46° 70° (ENE) 18:29:23
MOZHAYETS 4 28 Nov 18:14:55 18:19:02 32° 294° (WNW) 18:23:09
PCSat 28 Nov 18:15:53 18:20:06 24° 108° (ESE) 18:24:19 145.827
PRISM 28 Nov 18:20:49 18:25:04 67° 102° (ESE) 18:29:15 437.425
CUBESAT XI-V 28 Nov 18:27:33 18:31:49 34° 96° (E) 18:36:02 437.345
STRAND 1 28 Nov 18:32:47 18:37:29 35° 97° (E) 18:42:07 437.568
CUTE-I 28 Nov 18:35:58 18:40:31 28° 266° (W) 18:45:05 437.470
RS-15 28 Nov 18:37:05 18:47:16 42° 333° (NNW) 18:57:40 29.354- 29.394
BEESAT 3 28 Nov 18:44:59 18:47:53 19° 113° (ESE) 18:50:48 437.485
CUTE 1.7 + AOD 2 28 Nov 18:48:42 18:50:49 14° 59° (ENE) 18:52:57 437.475
JAS-2 28 Nov 18:53:44 18:56:51 13° 281° (W) 19:00:00 435.910
HO-68 28 Nov 19:01:54 19:08:28 41° 60° (ENE) 19:15:04 435.675
BEESAT 2 28 Nov 19:02:25 19:05:48 25° 115° (ESE) 19:09:14 435.950
DOVE 4 28 Nov 19:12:22 19:14:32 14° 60° (ENE) 19:16:40 437.250
BRITE-PL 28 Nov 19:13:08 19:16:59 25° 66° (ENE) 19:20:37 437.365/2234.400
SEEDS 28 Nov 19:16:28 19:19:40 22° 64° (ENE) 19:22:53 437.485
CINEMA 3 28 Nov 19:26:17 19:27:36 11° 58° (ENE) 19:28:55 145.822/145.860
AAUSAT CUBESAT 2 28 Nov 19:27:02 19:30:10 21° 64° (ENE) 19:33:19 437.432
UKube-1 28 Nov 19:27:40 19:29:27 12° 56° (ENE) 19:31:15 .
